Weather History for KJLN - May, 2012

Change the Weather History Date:

Saturday, May 26, 2012

  Actual Average Record
Temperature  
Mean Temperature 81 °F 70 °F  
Max Temperature 92 °F 80 °F 94 °F (1953)
Min Temperature 70 °F 59 °F 41 °F (1988)
Degree Days  
Heating Degree Days 0 1  
Month to date heating degree days 13 61  
Since 1 July heating degree days 3291 4064  
Cooling Degree Days 16 6  
Month to date cooling degree days 154 95  
Year to date cooling degree days 290 149  
Growing Degree Days 31 (Base 50)    
Moisture  
Dew Point 66 °F    
Average Humidity 61    
Maximum Humidity 84    
Minimum Humidity 38    
Precipitation  
Precipitation 0.00 in 0.18 in 2.27 in (1963)
Month to date precipitation 1.58 4.80  
Year to date precipitation 16.87 17.04  
Snow  
Snow 0.00 in - - ()
Month to date snowfall 0.0  
Snow Depth 0.00 in    
Sea Level Pressure  
Sea Level Pressure 29.93 in    
Wind  
Wind Speed 11 mph (SSE)    
Max Wind Speed 21 mph    
Max Gust Speed 28 mph    
Visibility 10 miles    
Events      
T = Trace of Precipitation, MM = Missing Value Source: NWS Daily Summary

Daily Weather History Graph

Daily Weather History Graph

Search for Another Location

Airport or City:

Trip Planner

Search our weather history database for the weather conditions in past years. The results will help you decide how hot, cold, wet, or windy it might be!

Date:

Astronomy

May. 26, 2012 Rise Set
Actual Time 6:01 AM CDT 8:28 PM CDT
Civil Twilight 5:31 AM CDT 8:58 PM CDT
Nautical Twilight 4:54 AM CDT 9:35 PM CDT
Astronomical Twilight 4:14 AM CDT 10:16 PM CDT
Moon 11:00 AM CDT (5/26) 12:06 AM CDT (5/26)
Length of Visible Light 15h 26m
Length of Day
14h 26m
Waxing Crescent, 28% of the Moon is Illuminated
May 26
Waxing Crescent
May 28
First Quarter
Jun 4
Full
Jun 11
Last Quarter
Jun 19
New

Hourly Weather History & Observations

Time (CDT) Temp. Heat Index Dew Point Humidity Pressure Visibility Wind Dir Wind Speed Gust Speed Precip Events Conditions
12:53 AM 71.1 °F - 66.9 °F 87% 29.93 in 10.0 mi East 4.6 mph - N/A   Clear
1:53 AM 71.1 °F - 66.9 °F 87% 29.94 in 10.0 mi East 5.8 mph - N/A   Partly Cloudy
2:53 AM 73.0 °F - 66.0 °F 79% 29.92 in 10.0 mi SE 8.1 mph - N/A   Clear
3:53 AM 73.0 °F - 66.0 °F 79% 29.91 in 10.0 mi SE 9.2 mph - N/A   Clear
4:53 AM 73.0 °F - 66.9 °F 81% 29.91 in 10.0 mi SSE 9.2 mph - N/A   Clear
5:53 AM 71.1 °F - 66.9 °F 87% 29.92 in 10.0 mi SSE 8.1 mph - N/A   Clear
6:53 AM 73.0 °F - 68.0 °F 84% 29.94 in 9.0 mi South 9.2 mph - N/A   Clear
7:53 AM 75.0 °F - 69.1 °F 82% 29.96 in 10.0 mi South 10.4 mph - N/A   Clear
8:53 AM 78.1 °F - 69.1 °F 74% 29.96 in 10.0 mi South 15.0 mph 21.9 mph N/A   Clear
9:53 AM 80.1 °F 82.9 °F 69.1 °F 69% 29.97 in 10.0 mi South 16.1 mph 23.0 mph N/A   Partly Cloudy
10:53 AM 84.0 °F 87.8 °F 69.1 °F 61% 29.97 in 10.0 mi South 13.8 mph 23.0 mph N/A   Clear
11:53 AM 87.1 °F 91.3 °F 69.1 °F 55% 29.97 in 10.0 mi South 11.5 mph - N/A   Clear
12:53 PM 86.0 °F 88.8 °F 66.9 °F 53% 29.97 in 10.0 mi South 15.0 mph 20.7 mph N/A   Clear
1:53 PM 89.1 °F 92.1 °F 66.9 °F 48% 29.96 in 10.0 mi South 15.0 mph 19.6 mph N/A   Clear
2:53 PM 89.1 °F 90.3 °F 64.0 °F 43% 29.95 in 10.0 mi South 12.7 mph - N/A   Clear
3:53 PM 89.1 °F 90.3 °F 64.0 °F 43% 29.93 in 10.0 mi SSE 12.7 mph 19.6 mph N/A   Clear
4:53 PM 90.0 °F 91.3 °F 64.0 °F 42% 29.92 in 10.0 mi South 15.0 mph 24.2 mph N/A   Clear
5:53 PM 91.0 °F 91.9 °F 63.0 °F 39% 29.92 in 10.0 mi South 13.8 mph - N/A   Clear
6:53 PM 86.0 °F 87.3 °F 64.0 °F 48% 29.91 in 10.0 mi South 10.4 mph - N/A   Clear
7:53 PM 81.0 °F 82.5 °F 64.0 °F 56% 29.91 in 10.0 mi South 8.1 mph - N/A   Clear
8:53 PM 79.0 °F - 64.0 °F 60% 29.91 in 10.0 mi South 9.2 mph - N/A   Clear
9:53 PM 78.1 °F - 64.0 °F 62% 29.91 in 10.0 mi SSE 9.2 mph - N/A   Clear
10:53 PM 75.9 °F - 64.0 °F 67% 29.92 in 10.0 mi South 8.1 mph - N/A   Clear
11:53 PM 77.0 °F - 63.0 °F 62% 29.91 in 10.0 mi South 9.2 mph - N/A   Clear